Year,Month,Day,Hour,Minute,Value (Times are PST for temperature in C)
2009,05,31,07,10,9.70
2009,05,31,07,11,9.80
2009,05,31,07,12,9.90
2009,05,31,07,13,10.00
2009,05,31,07,14,10.10
2009,05,31,07,15,10.20
2009,05,31,07,16,10.30
2009,05,31,07,17,10.40
2009,05,31,07,18,10.50
2009,05,31,07,19,10.50
2009,05,31,07,20,10.60
2009,05,31,07,21,10.70
2009,05,31,07,22,10.80
2009,05,31,07,23,10.90
2009,05,31,07,24,11.10
2009,05,31,07,25,11.20
2009,05,31,07,26,11.30
2009,05,31,07,27,11.40
2009,05,31,07,28,11.50
2009,05,31,07,29,11.60
2009,05,31,07,30,11.70
2009,05,31,07,31,11.80
2009,05,31,07,32,11.90
2009,05,31,07,33,12.10
2009,05,31,07,34,12.10
2009,05,31,07,35,12.20
2009,05,31,07,36,12.30
2009,05,31,07,37,12.30
2009,05,31,07,38,12.40
2009,05,31,07,39,12.50
2009,05,31,07,40,12.50
2009,05,31,07,41,12.60
2009,05,31,07,42,12.60
2009,05,31,07,43,12.70
2009,05,31,07,44,12.70
2009,05,31,07,45,12.70
2009,05,31,07,46,12.80
2009,05,31,07,47,12.80
2009,05,31,07,48,12.90
2009,05,31,07,49,12.90
2009,05,31,07,50,13.00
2009,05,31,07,51,13.00
2009,05,31,07,52,13.10
2009,05,31,07,53,13.20
2009,05,31,07,54,13.20
2009,05,31,07,55,13.30
2009,05,31,07,56,13.30
2009,05,31,07,57,13.40
2009,05,31,07,58,13.40
2009,05,31,07,59,13.50
2009,05,31,08,00,13.60
2009,05,31,08,01,13.70
2009,05,31,08,02,13.80
2009,05,31,08,03,13.80
2009,05,31,08,04,13.90
2009,05,31,08,05,13.90
2009,05,31,08,06,14.00
2009,05,31,08,07,14.00
2009,05,31,08,08,14.10
2009,05,31,08,09,14.10
2009,05,31,08,10,14.20
2009,05,31,08,11,14.20
2009,05,31,08,12,14.30
2009,05,31,08,13,14.30
2009,05,31,08,14,14.40
2009,05,31,08,15,14.40
2009,05,31,08,16,14.50
2009,05,31,08,17,14.60
2009,05,31,08,18,14.70
2009,05,31,08,19,14.90
2009,05,31,08,20,15.00
2009,05,31,08,21,15.00
2009,05,31,08,22,15.10
2009,05,31,08,23,15.30
2009,05,31,08,24,15.30
2009,05,31,08,25,15.40
2009,05,31,08,26,15.50
2009,05,31,08,27,15.60
2009,05,31,08,28,15.70
2009,05,31,08,29,15.80
2009,05,31,08,30,15.80
2009,05,31,08,31,15.90
2009,05,31,08,32,16.00
2009,05,31,08,33,16.20
2009,05,31,08,34,16.30
2009,05,31,08,35,16.30
2009,05,31,08,36,16.30
2009,05,31,08,37,16.40
2009,05,31,08,38,16.50
2009,05,31,08,39,16.50
2009,05,31,08,40,16.60
2009,05,31,08,41,16.60
2009,05,31,08,42,16.70
2009,05,31,08,43,16.70
2009,05,31,08,44,16.80
2009,05,31,08,45,16.80
2009,05,31,08,46,16.90
2009,05,31,08,47,16.80
2009,05,31,08,48,16.80
2009,05,31,08,49,16.70
2009,05,31,08,50,16.70
2009,05,31,08,51,16.70
2009,05,31,08,52,16.70
2009,05,31,08,53,16.70
2009,05,31,08,54,16.70
2009,05,31,08,55,16.70
2009,05,31,08,56,16.80
2009,05,31,08,57,16.80
2009,05,31,08,58,16.90
2009,05,31,08,59,17.00
2009,05,31,09,00,17.10
2009,05,31,09,01,17.10
2009,05,31,09,02,17.20
2009,05,31,09,03,17.30
2009,05,31,09,04,17.30
2009,05,31,09,05,17.40
2009,05,31,09,06,17.40
2009,05,31,09,07,17.50
2009,05,31,09,08,17.60
2009,05,31,09,09,17.60
2009,05,31,09,10,17.70
2009,05,31,09,11,17.60
2009,05,31,09,12,17.60
2009,05,31,09,13,17.70
2009,05,31,09,14,17.70
2009,05,31,09,15,17.80
2009,05,31,09,16,17.80
2009,05,31,09,17,17.90
2009,05,31,09,18,17.80
2009,05,31,09,19,17.70
2009,05,31,09,20,17.70
2009,05,31,09,21,17.70
2009,05,31,09,22,17.70
2009,05,31,09,23,17.70
2009,05,31,09,24,17.70
2009,05,31,09,25,17.80
2009,05,31,09,26,17.90
2009,05,31,09,27,18.10
2009,05,31,09,28,18.20
2009,05,31,09,29,18.20
2009,05,31,09,30,18.20
2009,05,31,09,31,18.20
2009,05,31,09,32,18.20
2009,05,31,09,33,18.10
2009,05,31,09,34,18.10
2009,05,31,09,35,18.00
2009,05,31,09,36,18.00
2009,05,31,09,37,18.00
2009,05,31,09,38,18.00
2009,05,31,09,39,18.10
2009,05,31,09,40,18.10
2009,05,31,09,41,18.10
2009,05,31,09,42,18.20
2009,05,31,09,43,18.20
2009,05,31,09,44,18.20
2009,05,31,09,45,18.20
2009,05,31,09,46,18.30
2009,05,31,09,47,18.30
2009,05,31,09,48,18.30
2009,05,31,09,49,18.30
2009,05,31,09,50,18.40
2009,05,31,09,51,18.40
2009,05,31,09,52,18.50
2009,05,31,09,53,18.60
2009,05,31,09,54,18.70
2009,05,31,09,55,18.80
2009,05,31,09,56,18.90
2009,05,31,09,57,19.00
2009,05,31,09,58,19.00
2009,05,31,09,59,19.10
2009,05,31,10,00,19.20
2009,05,31,10,01,19.30
2009,05,31,10,02,19.40
2009,05,31,10,03,19.50
2009,05,31,10,04,19.50
2009,05,31,10,05,19.60
2009,05,31,10,06,19.70
2009,05,31,10,07,19.70
2009,05,31,10,08,19.80
2009,05,31,10,09,19.80
2009,05,31,10,10,19.90
2009,05,31,10,11,19.90
2009,05,31,10,12,20.00
2009,05,31,10,13,20.10
2009,05,31,10,14,20.20
2009,05,31,10,15,20.30
2009,05,31,10,16,20.40
2009,05,31,10,17,20.40
2009,05,31,10,18,20.50
2009,05,31,10,19,20.60
2009,05,31,10,20,20.60
2009,05,31,10,21,20.60
2009,05,31,10,22,20.50
2009,05,31,10,23,20.50
2009,05,31,10,24,20.40
2009,05,31,10,25,20.40
2009,05,31,10,26,20.40
2009,05,31,10,27,20.40
2009,05,31,10,28,20.50
2009,05,31,10,29,20.50
2009,05,31,10,30,20.40
2009,05,31,10,31,20.40
2009,05,31,10,32,20.50
2009,05,31,10,33,20.50
2009,05,31,10,34,20.50
2009,05,31,10,35,20.60
2009,05,31,10,36,20.60
2009,05,31,10,37,20.70
2009,05,31,10,38,20.80
2009,05,31,10,39,20.90
2009,05,31,10,40,21.00
2009,05,31,10,41,21.20
2009,05,31,10,42,21.30
2009,05,31,10,43,21.30
2009,05,31,10,44,21.40
2009,05,31,10,45,21.40
2009,05,31,10,46,21.40
2009,05,31,10,47,21.40
2009,05,31,10,48,21.40
2009,05,31,10,49,21.40
2009,05,31,10,50,21.40
2009,05,31,10,51,21.40
2009,05,31,10,52,21.40
2009,05,31,10,53,21.30
2009,05,31,10,54,21.30
2009,05,31,10,55,21.20
2009,05,31,10,56,21.20
2009,05,31,10,57,21.10
2009,05,31,10,58,21.10
2009,05,31,10,59,21.10
2009,05,31,11,00,21.10
2009,05,31,11,01,21.10
2009,05,31,11,02,21.20
2009,05,31,11,03,21.20
2009,05,31,11,04,21.30
2009,05,31,11,05,21.30
2009,05,31,11,06,21.40
2009,05,31,11,07,21.50
2009,05,31,11,08,21.60
2009,05,31,11,09,21.60
2009,05,31,11,10,21.60
2009,05,31,11,11,21.60
2009,05,31,11,12,21.60
2009,05,31,11,13,21.60
2009,05,31,11,14,21.60
2009,05,31,11,15,21.70
2009,05,31,11,16,21.70
2009,05,31,11,17,21.70
2009,05,31,11,18,21.70
2009,05,31,11,19,21.70
2009,05,31,11,20,21.70
2009,05,31,11,21,21.60
2009,05,31,11,22,21.60
2009,05,31,11,23,21.60
2009,05,31,11,24,21.50
2009,05,31,11,25,21.50
2009,05,31,11,26,21.50
2009,05,31,11,27,21.50
2009,05,31,11,28,21.60
2009,05,31,11,29,21.60
2009,05,31,11,30,21.70
2009,05,31,11,31,21.70
2009,05,31,11,32,21.70
2009,05,31,11,33,21.70
2009,05,31,11,34,21.70
2009,05,31,11,35,21.60
2009,05,31,11,36,21.60
2009,05,31,11,37,21.70
2009,05,31,11,38,21.70
2009,05,31,11,39,21.70
2009,05,31,11,40,21.80
2009,05,31,11,41,21.80
2009,05,31,11,42,21.80
2009,05,31,11,43,21.80
2009,05,31,11,44,21.90
2009,05,31,11,45,21.90
2009,05,31,11,46,21.90
2009,05,31,11,47,21.90
2009,05,31,11,48,21.90
2009,05,31,11,49,21.90
2009,05,31,11,50,21.90
2009,05,31,11,51,21.90
2009,05,31,11,52,21.90
2009,05,31,11,53,21.90
2009,05,31,11,54,21.90
2009,05,31,11,55,22.00
2009,05,31,11,56,22.00
2009,05,31,11,57,22.10
2009,05,31,11,58,22.20
2009,05,31,11,59,22.20
2009,05,31,12,00,22.30
2009,05,31,12,01,22.40
2009,05,31,12,02,22.40
2009,05,31,12,03,22.50
2009,05,31,12,04,22.50
2009,05,31,12,05,22.40
2009,05,31,12,06,22.40
2009,05,31,12,07,22.40
2009,05,31,12,08,22.40
2009,05,31,12,09,22.50
2009,05,31,12,10,22.50
2009,05,31,12,11,22.50
2009,05,31,12,12,22.50
2009,05,31,12,13,22.40
2009,05,31,12,14,22.40
2009,05,31,12,15,22.40
2009,05,31,12,16,22.40
2009,05,31,12,17,22.40
2009,05,31,12,18,22.50
2009,05,31,12,19,22.50
2009,05,31,12,20,22.40
2009,05,31,12,21,22.40
2009,05,31,12,22,22.50
2009,05,31,12,23,22.40
2009,05,31,12,24,22.40
2009,05,31,12,25,22.40
2009,05,31,12,26,22.30
2009,05,31,12,27,22.30
2009,05,31,12,28,22.30
2009,05,31,12,29,22.30
2009,05,31,12,30,22.40
2009,05,31,12,31,22.50
2009,05,31,12,32,22.60
2009,05,31,12,33,22.70
2009,05,31,12,34,22.80
2009,05,31,12,35,22.90
2009,05,31,12,36,22.90
2009,05,31,12,37,22.90
2009,05,31,12,38,22.90
2009,05,31,12,39,22.80
2009,05,31,12,40,22.70
2009,05,31,12,41,22.70
2009,05,31,12,42,22.70
2009,05,31,12,43,22.80
2009,05,31,12,44,22.90
2009,05,31,12,45,22.90
2009,05,31,12,46,23.00
2009,05,31,12,47,23.00
2009,05,31,12,48,23.10
2009,05,31,12,49,23.10
2009,05,31,12,50,23.20
2009,05,31,12,51,23.20
2009,05,31,12,52,23.10
2009,05,31,12,53,23.10
2009,05,31,12,54,23.00
2009,05,31,12,55,23.00
2009,05,31,12,56,22.90
2009,05,31,12,57,22.90
2009,05,31,12,58,22.80
2009,05,31,12,59,22.90
2009,05,31,13,00,22.90
2009,05,31,13,01,22.90
2009,05,31,13,02,23.00
2009,05,31,13,03,23.10
2009,05,31,13,04,23.20
2009,05,31,13,05,23.20
2009,05,31,13,06,23.30
2009,05,31,13,07,23.30
2009,05,31,13,08,23.30
2009,05,31,13,09,23.40
2009,05,31,13,10,23.40
2009,05,31,13,11,23.40
2009,05,31,13,12,23.40
2009,05,31,13,13,23.40
2009,05,31,13,14,23.40
2009,05,31,13,15,23.40
2009,05,31,13,16,23.30
2009,05,31,13,17,23.30
2009,05,31,13,18,23.20
2009,05,31,13,19,23.20
2009,05,31,13,20,23.20
2009,05,31,13,21,23.20
2009,05,31,13,22,23.20
2009,05,31,13,23,23.30
2009,05,31,13,24,23.30
2009,05,31,13,25,23.20
2009,05,31,13,26,23.20
2009,05,31,13,27,23.10
2009,05,31,13,28,23.10
2009,05,31,13,29,23.00
2009,05,31,13,30,23.00
2009,05,31,13,31,23.00
2009,05,31,13,32,23.00
2009,05,31,13,33,23.10
2009,05,31,13,34,23.20
2009,05,31,13,35,23.30
2009,05,31,13,36,23.30
2009,05,31,13,37,23.40
2009,05,31,13,38,23.50
2009,05,31,13,39,23.60
2009,05,31,13,40,23.60
2009,05,31,13,41,23.70
2009,05,31,13,42,23.70
2009,05,31,13,43,23.70
2009,05,31,13,44,23.70
2009,05,31,13,45,23.70
2009,05,31,13,46,23.80
2009,05,31,13,47,23.80
2009,05,31,13,48,23.90
2009,05,31,13,49,23.90
2009,05,31,13,50,24.00
2009,05,31,13,51,24.00
2009,05,31,13,52,24.00
2009,05,31,13,53,23.90
2009,05,31,13,54,23.90
2009,05,31,13,55,23.90
2009,05,31,13,56,24.00
2009,05,31,13,57,24.00
2009,05,31,13,58,24.00
2009,05,31,13,59,24.00
2009,05,31,14,00,24.00
2009,05,31,14,01,24.00
2009,05,31,14,02,24.00
2009,05,31,14,03,24.00
2009,05,31,14,04,24.10
2009,05,31,14,05,24.10
2009,05,31,14,06,24.10
2009,05,31,14,07,24.10
2009,05,31,14,08,24.00
2009,05,31,14,09,23.90
2009,05,31,14,10,23.90
2009,05,31,14,11,23.90
2009,05,31,14,12,24.00
2009,05,31,14,13,23.90
2009,05,31,14,14,23.90
2009,05,31,14,15,24.00
2009,05,31,14,16,24.00
2009,05,31,14,17,24.10
2009,05,31,14,18,24.10
2009,05,31,14,19,24.10
2009,05,31,14,20,24.20
2009,05,31,14,21,24.20
2009,05,31,14,22,24.30
2009,05,31,14,23,24.30
2009,05,31,14,24,24.30
2009,05,31,14,25,24.30
2009,05,31,14,26,24.40
2009,05,31,14,27,24.40
2009,05,31,14,28,24.50
2009,05,31,14,29,24.60
2009,05,31,14,30,24.60
2009,05,31,14,31,24.70
2009,05,31,14,32,24.70
2009,05,31,14,33,24.70
2009,05,31,14,34,24.70
2009,05,31,14,35,24.70
2009,05,31,14,36,24.70
2009,05,31,14,37,24.70
2009,05,31,14,38,24.70
2009,05,31,14,39,24.70
2009,05,31,14,40,24.70
2009,05,31,14,41,24.70
2009,05,31,14,42,24.70
2009,05,31,14,43,24.70
2009,05,31,14,44,24.70
2009,05,31,14,45,24.70
2009,05,31,14,46,24.70
2009,05,31,14,47,24.80
2009,05,31,14,48,24.80
2009,05,31,14,49,24.80
2009,05,31,14,50,24.80
2009,05,31,14,51,24.70
2009,05,31,14,52,24.70
2009,05,31,14,53,24.70
2009,05,31,14,54,24.60
2009,05,31,14,55,24.60
2009,05,31,14,56,24.60
2009,05,31,14,57,24.60
2009,05,31,14,58,24.60
2009,05,31,14,59,24.60
2009,05,31,15,00,24.50
2009,05,31,15,01,24.50
2009,05,31,15,02,24.60
2009,05,31,15,03,24.60
2009,05,31,15,04,24.70
2009,05,31,15,05,24.70
2009,05,31,15,06,24.80
2009,05,31,15,07,24.80
2009,05,31,15,08,24.90
2009,05,31,15,09,25.00
2009,05,31,15,10,25.10
2009,05,31,15,11,25.10
2009,05,31,15,12,25.10
2009,05,31,15,13,25.10
2009,05,31,15,14,25.10
2009,05,31,15,15,25.10
2009,05,31,15,16,25.10
2009,05,31,15,17,25.00
2009,05,31,15,18,25.00
2009,05,31,15,19,24.90
2009,05,31,15,20,24.90
2009,05,31,15,21,25.00
2009,05,31,15,22,25.00
2009,05,31,15,23,25.10
2009,05,31,15,24,25.20
2009,05,31,15,25,25.20
2009,05,31,15,26,25.30
2009,05,31,15,27,25.30
2009,05,31,15,28,25.20
2009,05,31,15,29,25.20
2009,05,31,15,30,25.10
2009,05,31,15,31,25.10
2009,05,31,15,32,25.10
2009,05,31,15,33,25.10
2009,05,31,15,34,25.10
2009,05,31,15,35,25.10
2009,05,31,15,36,25.10
2009,05,31,15,37,25.20
2009,05,31,15,38,25.20
2009,05,31,15,39,25.20
2009,05,31,15,40,25.20
2009,05,31,15,41,25.20
2009,05,31,15,42,25.20
2009,05,31,15,43,25.20
2009,05,31,15,44,25.20
2009,05,31,15,45,25.20
2009,05,31,15,46,25.10
2009,05,31,15,47,25.10
2009,05,31,15,48,25.10
2009,05,31,15,49,25.20
2009,05,31,15,50,25.20
2009,05,31,15,51,25.30
2009,05,31,15,52,25.30
2009,05,31,15,53,25.30
2009,05,31,15,54,25.30
2009,05,31,15,55,25.20
2009,05,31,15,56,25.20
2009,05,31,15,57,25.20
2009,05,31,15,58,25.20
2009,05,31,15,59,25.20
2009,05,31,16,00,25.10
2009,05,31,16,01,25.20
2009,05,31,16,02,25.20
2009,05,31,16,03,25.20
2009,05,31,16,04,25.30
2009,05,31,16,05,25.20
2009,05,31,16,06,25.20
2009,05,31,16,07,25.20
2009,05,31,16,08,25.20
2009,05,31,16,09,25.20
2009,05,31,16,10,25.20
2009,05,31,16,11,25.20
2009,05,31,16,12,25.30
2009,05,31,16,13,25.30
2009,05,31,16,14,25.30
2009,05,31,16,15,25.30
2009,05,31,16,16,25.30
2009,05,31,16,17,25.20
2009,05,31,16,18,25.30
2009,05,31,16,19,25.30
2009,05,31,16,20,25.30
2009,05,31,16,21,25.30
2009,05,31,16,22,25.30
2009,05,31,16,23,25.20
2009,05,31,16,24,25.10
2009,05,31,16,25,25.00
2009,05,31,16,26,24.90
2009,05,31,16,27,24.90
2009,05,31,16,28,24.90
2009,05,31,16,29,24.90
2009,05,31,16,30,25.00
2009,05,31,16,31,25.10
2009,05,31,16,32,25.10
2009,05,31,16,33,25.10
2009,05,31,16,34,25.20
2009,05,31,16,35,25.20
2009,05,31,16,36,25.10
2009,05,31,16,37,25.10
2009,05,31,16,38,25.00
2009,05,31,16,39,24.90
2009,05,31,16,40,25.00
2009,05,31,16,41,25.00
2009,05,31,16,42,24.90
2009,05,31,16,43,24.90
2009,05,31,16,44,25.00
2009,05,31,16,45,25.00
2009,05,31,16,46,25.10
2009,05,31,16,47,25.10
2009,05,31,16,48,25.20
2009,05,31,16,49,25.20
2009,05,31,16,50,25.20
2009,05,31,16,51,25.10
2009,05,31,16,52,25.00
2009,05,31,16,53,24.90
2009,05,31,16,54,24.80
2009,05,31,16,55,24.70
2009,05,31,16,56,24.70
2009,05,31,16,57,24.80
2009,05,31,16,58,24.80
2009,05,31,16,59,24.80
2009,05,31,17,00,24.90
2009,05,31,17,01,24.90
2009,05,31,17,02,25.00
2009,05,31,17,03,25.00
2009,05,31,17,04,25.00
2009,05,31,17,05,24.90
2009,05,31,17,06,24.90
2009,05,31,17,07,24.80
2009,05,31,17,08,24.70
2009,05,31,17,09,24.70
2009,05,31,17,10,24.60
2009,05,31,17,11,24.60
2009,05,31,17,12,24.50
2009,05,31,17,13,24.50
2009,05,31,17,14,24.40
2009,05,31,17,15,24.40
2009,05,31,17,16,24.50
2009,05,31,17,17,24.50
2009,05,31,17,18,24.50
2009,05,31,17,19,24.50
2009,05,31,17,20,24.60
2009,05,31,17,21,24.60
2009,05,31,17,22,24.60
2009,05,31,17,23,24.60
2009,05,31,17,24,24.60
2009,05,31,17,25,24.60
2009,05,31,17,26,24.50
2009,05,31,17,27,24.50
2009,05,31,17,28,24.50
2009,05,31,17,29,24.40
2009,05,31,17,30,24.40
2009,05,31,17,31,24.30
2009,05,31,17,32,24.30
2009,05,31,17,33,24.30
2009,05,31,17,34,24.20
2009,05,31,17,35,24.20
2009,05,31,17,36,24.20
2009,05,31,17,37,24.20
2009,05,31,17,38,24.20
2009,05,31,17,39,24.20
2009,05,31,17,40,24.20
2009,05,31,17,41,24.20
2009,05,31,17,42,24.20
2009,05,31,17,43,24.10
2009,05,31,17,44,24.10
2009,05,31,17,45,24.10
2009,05,31,17,46,24.10
2009,05,31,17,47,24.00
2009,05,31,17,48,24.00
2009,05,31,17,49,24.00
2009,05,31,17,50,24.00
2009,05,31,17,51,23.90
2009,05,31,17,52,24.00
2009,05,31,17,53,24.00
2009,05,31,17,54,24.00
2009,05,31,17,55,23.90
2009,05,31,17,56,23.90
2009,05,31,17,57,23.90
2009,05,31,17,58,23.80
2009,05,31,17,59,23.70
2009,05,31,18,00,23.70
2009,05,31,18,01,23.60
2009,05,31,18,02,23.60
2009,05,31,18,03,23.60
2009,05,31,18,04,23.50
2009,05,31,18,05,23.50
2009,05,31,18,06,23.50
2009,05,31,18,07,23.40
2009,05,31,18,08,23.50
2009,05,31,18,09,23.40
2009,05,31,18,10,23.50
2009,05,31,18,11,23.40
2009,05,31,18,12,23.40
2009,05,31,18,13,23.40
2009,05,31,18,14,23.40
2009,05,31,18,15,23.40
2009,05,31,18,16,23.30
2009,05,31,18,17,23.30
2009,05,31,18,18,23.30
2009,05,31,18,19,23.40
2009,05,31,18,20,23.40
2009,05,31,18,21,23.40
2009,05,31,18,22,23.40
2009,05,31,18,23,23.40
2009,05,31,18,24,23.40
2009,05,31,18,25,23.30
2009,05,31,18,26,23.30
2009,05,31,18,27,23.30
2009,05,31,18,28,23.30
2009,05,31,18,29,23.30
2009,05,31,18,30,23.30
2009,05,31,18,31,23.20
2009,05,31,18,32,23.20
2009,05,31,18,33,23.20
2009,05,31,18,34,23.20
2009,05,31,18,35,23.10
2009,05,31,18,36,23.10
2009,05,31,18,37,23.10
2009,05,31,18,38,23.10
2009,05,31,18,39,23.10
2009,05,31,18,40,23.10
2009,05,31,18,41,23.10
2009,05,31,18,42,23.10
2009,05,31,18,43,23.10
2009,05,31,18,44,23.10
2009,05,31,18,45,23.10
2009,05,31,18,46,23.10
2009,05,31,18,47,23.20
2009,05,31,18,48,23.20
2009,05,31,18,49,23.20
2009,05,31,18,50,23.20
2009,05,31,18,51,23.20
2009,05,31,18,52,23.20
2009,05,31,18,53,23.20
2009,05,31,18,54,23.10
2009,05,31,18,55,23.00
2009,05,31,18,56,23.00
2009,05,31,18,57,23.00
2009,05,31,18,58,22.90
2009,05,31,18,59,22.90
2009,05,31,19,00,22.90
2009,05,31,19,01,22.90
2009,05,31,19,02,22.90
2009,05,31,19,03,22.90
2009,05,31,19,04,22.90
2009,05,31,19,05,22.90
2009,05,31,19,06,22.90
2009,05,31,19,07,22.80
2009,05,31,19,08,22.80
2009,05,31,19,09,22.80
2009,05,31,19,10,22.80
2009,05,31,19,11,22.80
2009,05,31,19,12,22.80
2009,05,31,19,13,22.80
2009,05,31,19,14,22.80
2009,05,31,19,15,22.80
2009,05,31,19,16,22.80
2009,05,31,19,17,22.80
2009,05,31,19,18,22.70
2009,05,31,19,19,22.70
2009,05,31,19,20,22.70
2009,05,31,19,21,22.70
2009,05,31,19,22,22.70
2009,05,31,19,23,22.70
2009,05,31,19,24,22.70
2009,05,31,19,25,22.70
2009,05,31,19,26,22.70
2009,05,31,19,27,22.70
2009,05,31,19,28,22.70
2009,05,31,19,29,22.70
